TimeCST,TemperatureF,Dew PointF,Humidity,Sea Level PressureIn,VisibilityMPH,Wind Direction,Wind SpeedMPH,Gust SpeedMPH,PrecipitationIn,Events,Conditions,WindDirDegrees,DateUTC
12:15 AM,64.0,64.0,100,30.08,1.5,South,9.2,-,N/A,,Overcast,180,2014-02-19 06:15:00
12:26 AM,64.0,64.0,100,30.08,0.5,South,9.2,-,N/A,Fog,Fog,180,2014-02-19 06:26:00
12:53 AM,64.0,64.0,100,30.09,0.8,South,6.9,-,N/A,,Mist,190,2014-02-19 06:53:00
1:53 AM,64.0,64.0,100,30.09,0.5,South,6.9,-,N/A,Fog,Fog,180,2014-02-19 07:53:00
2:53 AM,64.0,64.0,100,30.06,0.8,South,8.1,-,N/A,,Mist,180,2014-02-19 08:53:00
3:07 AM,64.0,64.0,100,30.06,1.0,South,6.9,-,N/A,,Overcast,190,2014-02-19 09:07:00
3:53 AM,64.0,64.0,100,30.07,1.2,South,8.1,-,N/A,,Overcast,180,2014-02-19 09:53:00
4:12 AM,64.0,64.0,100,30.05,0.8,South,8.1,-,N/A,,Mist,180,2014-02-19 10:12:00
4:53 AM,64.0,64.0,100,30.07,0.8,South,6.9,-,N/A,,Mist,180,2014-02-19 10:53:00
5:07 AM,64.0,64.0,100,30.07,1.0,SSW,3.5,-,N/A,,Mist,200,2014-02-19 11:07:00
5:53 AM,63.0,63.0,100,30.09,0.5,Calm,Calm,-,N/A,Fog,Fog,0,2014-02-19 11:53:00
6:08 AM,63.0,63.0,100,30.08,0.2,WSW,3.5,-,N/A,Fog,Fog,250,2014-02-19 12:08:00
6:53 AM,63.0,63.0,100,30.12,0.2,Calm,Calm,-,N/A,Fog,Fog,0,2014-02-19 12:53:00
7:03 AM,63.0,63.0,100,30.11,0.5,SSW,3.5,-,N/A,Fog,Fog,200,2014-02-19 13:03:00
7:53 AM,64.0,64.0,100,30.11,0.5,South,3.5,-,N/A,Fog,Fog,180,2014-02-19 13:53:00
8:39 AM,64.0,64.0,100,30.11,1.0,Calm,Calm,-,N/A,,Overcast,0,2014-02-19 14:39:00
8:50 AM,64.4,64.4,100,30.11,3.0,Calm,Calm,-,N/A,,Overcast,0,2014-02-19 14:50:00
8:53 AM,64.0,64.0,100,30.12,3.0,Calm,Calm,-,N/A,,Overcast,0,2014-02-19 14:53:00
9:30 AM,64.9,64.0,97,30.12,10.0,SW,3.5,-,N/A,,Overcast,220,2014-02-19 15:30:00
9:53 AM,64.9,64.0,97,30.13,10.0,Calm,Calm,-,N/A,,Overcast,0,2014-02-19 15:53:00
10:53 AM,69.1,64.0,84,30.12,10.0,Calm,Calm,-,N/A,,Overcast,0,2014-02-19 16:53:00
11:39 AM,72.0,64.0,76,30.09,10.0,Variable,3.5,-,N/A,,Mostly Cloudy,0,2014-02-19 17:39:00
11:50 AM,73.4,62.6,69,30.08,10.0,Calm,Calm,-,N/A,,Mostly Cloudy,0,2014-02-19 17:50:00
11:53 AM,73.0,64.0,73,30.08,10.0,Variable,4.6,-,N/A,,Mostly Cloudy,0,2014-02-19 17:53:00
12:45 PM,75.9,62.1,62,30.05,2.5,SSW,5.8,-,N/A,,Haze,210,2014-02-19 18:45:00
12:53 PM,75.0,62.1,64,30.05,10.0,Variable,6.9,-,N/A,,Clear,0,2014-02-19 18:53:00
1:53 PM,75.0,63.0,66,30.04,10.0,South,6.9,-,N/A,,Partly Cloudy,170,2014-02-19 19:53:00
2:53 PM,73.9,64.9,73,30.02,10.0,SSE,10.4,-,N/A,,Partly Cloudy,160,2014-02-19 20:53:00
3:33 PM,72.0,64.9,78,30.01,8.0,SSE,10.4,-,N/A,,Mostly Cloudy,160,2014-02-19 21:33:00
3:50 PM,71.6,64.4,78,30.01,10.0,SSE,10.4,-,N/A,,Mostly Cloudy,150,2014-02-19 21:50:00
3:53 PM,72.0,64.9,78,30.01,10.0,SSE,10.4,-,N/A,,Mostly Cloudy,150,2014-02-19 21:53:00
4:04 PM,71.1,64.9,81,30.01,10.0,SSE,8.1,-,N/A,,Mostly Cloudy,150,2014-02-19 22:04:00
4:16 PM,71.1,64.9,81,30.01,10.0,SE,10.4,-,N/A,,Mostly Cloudy,140,2014-02-19 22:16:00
4:25 PM,70.0,64.9,84,30.01,10.0,SE,9.2,-,N/A,,Overcast,140,2014-02-19 22:25:00
4:41 PM,69.1,64.9,87,30.01,8.0,SSE,8.1,-,N/A,,Overcast,150,2014-02-19 22:41:00
4:53 PM,69.1,64.9,87,30.02,9.0,SSE,9.2,-,N/A,,Mostly Cloudy,150,2014-02-19 22:53:00
5:08 PM,69.1,64.9,87,30.02,10.0,SSE,6.9,-,N/A,,Mostly Cloudy,150,2014-02-19 23:08:00
5:53 PM,66.9,64.9,93,30.02,10.0,SE,6.9,-,N/A,,Overcast,140,2014-02-19 23:53:00
6:27 PM,66.0,64.9,96,30.02,10.0,SSE,6.9,-,N/A,,Mostly Cloudy,150,2014-02-20 00:27:00
6:35 PM,66.0,64.9,96,30.02,10.0,SSE,6.9,-,N/A,,Overcast,160,2014-02-20 00:35:00
6:43 PM,66.0,64.9,96,30.02,10.0,SSE,6.9,-,N/A,,Overcast,150,2014-02-20 00:43:00
6:53 PM,64.9,64.9,100,30.03,9.0,SSE,5.8,-,N/A,,Overcast,150,2014-02-20 00:53:00
7:53 PM,64.9,64.9,100,30.03,5.0,South,5.8,-,N/A,,Overcast,170,2014-02-20 01:53:00
8:53 PM,66.0,66.0,100,30.03,3.0,South,9.2,-,N/A,,Overcast,170,2014-02-20 02:53:00
9:53 PM,64.9,64.0,97,30.03,2.5,South,11.5,-,N/A,,Overcast,170,2014-02-20 03:53:00
10:02 PM,64.0,64.0,100,30.02,1.5,SSE,12.7,-,N/A,,Overcast,160,2014-02-20 04:02:00
10:53 PM,64.9,64.0,97,30.02,1.8,South,9.2,17.3,N/A,,Overcast,170,2014-02-20 04:53:00
11:36 PM,64.9,64.9,100,30.00,2.5,SSE,6.9,-,N/A,,Overcast,150,2014-02-20 05:36:00
11:43 PM,64.9,64.9,100,30.00,5.0,SSE,9.2,-,N/A,,Overcast,150,2014-02-20 05:43:00
11:53 PM,64.9,64.9,100,30.00,6.0,SSE,10.4,-,N/A,,Overcast,160,2014-02-20 05:53:00